IRNSS-1G

Last updated on Sun Jul 06 2025 00:02:45 GMT+0000 (Coordinated Universal Time)

1 41469U 16027A 25186.51906095 -.00000322 00000+0 00000+0 0 9993 2 41469 4.3456 106.4613 0006898 0.0403 133.5448 1.00278052 33703
UTC large
Height (km)
Speed (km/s)
/
Latitude / Longitude
Inclination (degrees)
Orbital Period (minutes)
Azimuth
Elevation
Range (km)
Doppler Factor

Next 0 passes for location: London (51.5072 / 0.1276)

Sorry there are no passes over London.